Theta_e
310 310 310 310 310 311 311 311 311 312 312 312 313 314 313 314 317 320 324 317 316 314 316 318 318 319 319 320 320 322 325 328 331 333 333 333 331 329 328 329 331 333 337 343 349
310 310 310 311 311 311 311 311 311 312 312 312 313 314 314 315 320 323 318 316 314 314 316 318 320 319 320 322 321 322 325 327 330 331 332 331 329 329 329 329 330 332 339 345 348
310 310 311 311 311 312 312 312 312 312 312 312 313 315 314 316 324 322 317 316 315 316 320 319 319 320 322 322 322 323 324 326 326 326 327 328 328 329 328 330 330 329 333 344 346
310 310 311 311 312 312 312 312 312 312 312 313 313 316 315 316 327 321 317 317 316 317 319 319 319 322 324 324 323 323 324 324 324 325 325 327 328 327 328 329 329 328 328 336 342
310 310 311 311 312 312 312 312 313 313 313 314 314 317 315 323 321 318 318 317 317 318 318 319 321 323 325 324 323 324 325 324 323 323 325 325 326 328 329 329 329 329 329 329 337
310 311 311 311 312 312 312 312 313 313 314 315 316 318 321 324 321 321 320 320 321 320 318 320 323 322 324 323 324 324 324 324 324 324 325 326 328 328 328 328 327 327 328 328 332
310 311 311 311 312 312 312 313 313 313 314 316 318 315 322 320 320 321 320 321 322 321 322 321 321 321 323 325 324 323 324 326 325 326 327 326 327 328 328 327 328 328 328 327 330
310 310 311 311 311 312 313 313 313 313 314 315 317 317 322 318 320 321 322 322 321 321 321 321 321 322 322 323 323 324 325 327 327 327 326 326 329 329 328 328 328 328 328 328 332
310 311 311 311 312 312 313 314 314 314 315 315 320 325 323 320 324 321 322 322 320 320 321 319 320 323 323 324 325 326 327 328 327 327 327 327 328 330 330 328 328 328 328 329 329
310 310 311 311 312 313 314 314 315 315 315 318 320 326 323 325 323 322 320 321 320 321 321 321 322 325 326 326 328 327 327 328 327 328 327 327 328 330 332 331 330 330 330 330 330
310 310 310 311 312 314 316 320 322 323 321 321 321 323 324 322 321 321 320 320 321 322 325 323 325 327 326 326 325 325 326 326 327 327 326 327 327 332 332 332 333 333 335 337 338
310 310 311 312 313 314 318 318 316 316 322 320 319 320 321 321 322 321 319 322 322 325 323 326 328 325 325 325 325 326 327 329 328 327 327 327 330 333 333 335 335 337 339 343 344
309 310 311 312 313 316 317 315 315 316 323 321 319 321 322 322 324 322 321 322 323 323 325 329 326 324 325 327 327 328 327 326 326 326 328 329 332 334 334 335 337 339 340 343 344
309 310 311 313 318 316 318 315 316 316 329 324 323 320 320 321 323 322 322 323 323 324 325 327 325 325 326 326 326 329 326 326 326 327 329 330 337 334 334 335 338 338 338 340 343
309 310 311 312 313 317 316 314 316 319 333 324 323 321 321 324 323 322 322 323 325 324 326 327 326 326 328 327 326 328 326 327 326 328 329 327 336 334 333 334 338 338 337 338 339
309 310 311 315 314 316 314 314 318 328 330 324 322 323 323 323 323 322 323 323 323 325 325 326 325 326 327 327 327 327 327 329 329 329 332 327 330 335 334 333 337 337 337 337 338
309 310 311 312 318 314 313 318 328 331 327 324 324 324 325 325 324 325 325 326 328 328 327 325 326 327 327 327 328 327 330 331 331 329 329 328 326 335 333 334 335 336 336 336 337
310 310 311 312 312 313 316 324 329 327 327 325 325 325 326 326 325 325 327 328 327 329 328 329 329 328 328 327 328 328 328 332 331 331 330 328 331 333 333 332 333 334 335 335 336
310 314 314 316 313 312 320 326 328 327 326 325 325 325 325 326 327 328 329 329 328 329 333 329 329 327 327 328 328 330 332 328 329 330 331 330 332 331 333 334 333 333 334 335 334
311 315 317 314 312 317 324 324 326 325 324 326 326 327 327 326 327 328 328 329 329 328 328 331 330 328 328 327 329 329 328 330 332 332 332 330 330 337 337 334 332 332 333 333 331
311 318 319 312 313 319 324 324 324 322 323 326 327 326 327 327 327 328 329 328 327 328 328 330 331 331 329 330 330 329 329 331 331 331 332 331 332 335 334 332 332 331 331 330 329
316 320 318 313 319 321 323 324 320 323 323 325 326 326 326 326 326 327 329 330 325 327 328 330 330 331 329 329 327 327 328 330 331 329 329 328 327 333 330 329 329 329 328 327 328
317 321 317 316 323 322 321 322 323 324 324 325 325 326 326 327 328 327 329 325 324 327 329 329 331 332 328 330 330 330 329 326 327 330 331 330 330 331 330 329 329 329 328 328 328
318 321 319 317 320 324 321 323 323 323 323 324 325 325 326 326 326 327 327 325 324 325 322 327 329 330 329 328 327 327 325 326 327 329 330 329 329 329 329 330 329 328 328 327 327
317 322 322 322 321 320 321 323 323 323 323 324 325 325 326 327 326 326 325 325 324 322 325 328 329 328 328 327 326 326 326 326 326 327 328 328 327 328 331 329 328 328 327 326 326
318 321 320 323 321 321 318 324 324 323 324 325 325 324 325 326 326 327 326 326 328 326 327 328 329 328 329 326 326 326 325 325 325 325 326 327 330 329 328 327 327 328 327 326 325
314 317 320 320 322 322 322 322 323 324 323 324 324 324 325 326 325 326 325 325 326 326 327 328 330 329 328 326 327 328 327 326 325 325 327 328 327 327 328 327 326 325 326 324 323
Wind_Speed
10 10 11 13 13 13 14 14 13 13 12 11 12 12 11 8 0 3 2 5 6 7 6 3 4 6 6 11 8 8 11 12 15 11 9 7 7 7 7 9 7 5 7 5 6
10 11 12 13 13 14 15 15 13 12 12 11 11 11 9 3 3 3 5 3 4 7 4 6 7 6 13 8 5 10 10 14 8 10 7 10 9 9 8 11 10 6 10 9 8
11 11 12 13 14 15 16 15 14 13 12 11 9 10 7 5 5 2 2 3 5 7 2 5 6 8 12 6 8 10 13 9 9 7 12 13 12 10 11 13 9 9 6 7 7
10 11 12 14 14 15 16 15 15 13 11 10 9 8 5 4 1 2 2 4 3 5 5 6 7 11 9 6 2 10 5 9 11 7 10 12 12 12 15 16 16 13 11 6 9
11 12 13 14 14 16 17 15 14 12 10 9 8 6 1 7 6 2 2 3 3 1 5 6 9 8 10 2 5 9 4 6 9 12 13 10 12 15 15 19 14 17 16 12 10
12 12 14 15 15 16 17 14 12 11 9 8 6 4 2 11 4 3 2 2 2 2 2 4 4 6 9 9 8 6 9 12 10 10 8 10 12 7 19 14 16 14 13 13 13
12 13 14 15 15 16 16 13 12 10 7 6 5 1 4 2 6 3 3 2 3 3 4 3 4 8 6 11 6 11 13 13 6 4 3 7 15 15 7 13 10 7 6 8 9
12 13 14 15 16 16 14 13 11 8 5 4 3 3 2 5 4 4 4 5 4 4 4 3 5 10 9 8 12 13 16 13 10 6 6 13 4 10 11 11 9 7 8 4 7
13 13 14 15 15 14 14 14 9 5 2 2 1 3 6 4 2 3 5 4 4 4 5 5 7 12 9 13 13 10 9 6 7 3 7 8 11 8 8 9 9 9 9 3 6
13 12 14 14 14 12 15 7 6 3 2 5 2 6 6 5 2 3 4 5 4 4 8 9 11 12 12 9 10 8 5 6 7 6 9 15 7 4 11 11 7 7 9 9 10
12 11 13 13 12 11 11 8 4 1 5 5 2 5 5 1 2 3 5 5 4 7 11 6 11 2 12 7 7 6 6 6 2 4 8 12 9 13 7 15 18 18 17 15 11
12 11 12 12 8 8 12 4 5 4 4 1 4 5 4 3 4 4 6 7 5 7 4 9 3 5 3 2 5 5 8 7 9 1 10 3 5 8 7 20 18 19 18 18 15
12 11 12 11 5 9 5 6 8 3 7 5 4 5 6 6 1 5 6 2 7 6 6 9 12 2 5 6 8 4 10 7 10 9 8 10 6 12 15 19 19 21 22 21 21
12 11 11 7 5 6 1 8 9 1 6 9 8 5 7 6 6 2 3 6 6 3 3 4 7 3 6 2 9 7 6 7 8 12 7 6 4 13 13 15 15 21 22 24 23
11 9 9 9 5 5 6 9 6 2 6 7 6 4 8 7 6 5 4 5 4 3 8 10 3 3 9 9 8 7 7 8 7 8 7 7 8 11 11 12 14 19 22 23 24
10 10 8 8 7 6 9 9 4 6 3 6 8 9 13 7 3 7 5 5 2 5 7 6 2 4 8 7 6 10 12 13 6 9 9 2 10 11 13 11 13 17 21 21 22
10 10 9 7 3 10 8 3 6 7 8 8 11 13 10 8 6 8 8 6 4 7 9 6 9 3 6 13 6 9 13 10 8 7 5 6 8 10 9 11 14 15 19 20 21
10 10 9 8 8 6 3 6 6 5 4 4 5 9 9 8 6 5 7 9 4 10 6 6 9 4 6 7 12 7 8 7 6 10 9 9 4 8 10 12 13 16 17 19 20
9 6 7 6 5 3 6 9 3 6 3 9 10 11 7 6 3 4 5 10 8 9 8 5 3 4 1 7 9 7 3 9 7 16 9 3 13 13 9 10 11 14 17 19 19
7 6 7 8 3 2 7 5 2 3 3 7 11 7 10 8 9 6 3 7 5 8 5 7 9 5 4 8 6 6 6 8 5 7 10 12 11 9 8 8 10 13 16 18 18
3 6 6 5 3 7 8 2 3 5 3 4 1 5 3 6 4 2 7 8 6 7 7 9 4 1 8 1 11 10 9 6 5 9 8 10 4 9 7 9 12 14 16 17 17
3 5 1 6 7 7 8 3 2 7 4 1 4 3 4 2 4 2 6 8 7 7 7 6 5 9 16 6 6 8 7 7 7 11 13 12 13 9 7 10 12 14 14 13 15
5 2 2 5 5 7 3 6 3 6 5 5 3 1 2 2 2 1 7 3 6 7 7 8 1 8 11 11 5 3 6 7 6 8 14 11 7 5 4 6 9 11 11 11 12
4 5 5 9 10 9 7 10 9 2 3 2 4 5 5 4 0 4 7 2 5 7 4 3 7 8 10 17 14 11 13 11 10 9 13 13 17 11 8 8 10 8 9 11 11
7 5 1 6 11 10 6 9 12 8 5 6 3 5 3 4 3 3 1 6 4 3 2 4 6 9 9 13 13 14 14 14 14 14 15 16 17 14 14 11 7 4 5 10 11
5 5 6 3 6 12 8 8 13 8 8 7 6 4 3 2 3 4 2 1 3 2 3 3 6 8 13 17 7 14 16 13 8 9 11 9 7 11 7 9 10 11 9 12 12
7 4 4 8 7 10 11 10 12 10 4 2 7 5 6 8 7 8 4 3 3 4 4 3 6 8 12 9 11 16 12 7 9 11 7 11 14 13 12 14 20 19 16 8 14
Wind_Direction
333 336 340 333 324 329 325 323 325 325 324 326 333 335 336 329 140 65 66 221 205 186 172 196 240 234 232 243 243 247 268 249 245 216 263 164 325 348 327 288 319 330 35 44 143
331 337 339 329 327 332 325 323 325 325 321 324 334 335 340 326 157 233 285 221 172 182 201 226 229 229 229 244 226 241 231 250 282 357 313 330 303 314 308 299 286 213 145 138 155
329 336 333 330 330 332 325 324 325 324 320 322 330 334 335 213 276 72 16 151 159 163 277 243 257 243 251 257 201 220 264 344 334 290 269 286 282 297 298 284 344 344 337 153 181
329 333 331 328 333 330 325 324 325 325 322 321 325 333 321 224 340 121 97 91 161 201 259 244 238 234 262 232 207 265 220 289 274 260 242 262 297 291 283 293 309 292 284 204 214
330 333 330 328 333 329 324 325 323 323 323 320 317 330 238 235 87 134 87 96 83 234 237 222 239 262 257 287 249 244 277 282 259 248 252 282 272 267 284 274 299 289 285 253 216
329 333 330 329 333 327 323 324 322 322 325 327 322 324 224 244 143 166 138 154 165 230 206 227 293 303 299 276 276 347 291 289 270 266 255 263 273 286 274 336 297 290 281 253 234
329 331 330 329 334 326 323 324 319 318 325 339 329 273 251 65 162 179 193 215 204 197 242 246 283 249 328 249 251 276 272 263 195 214 259 280 244 235 356 307 309 299 272 265 264
329 332 329 330 333 326 324 323 318 311 321 325 316 167 11 153 190 240 233 221 224 239 245 270 267 273 262 306 261 249 246 240 125 274 121 267 323 56 352 321 311 328 316 285 235
330 333 330 333 332 327 329 325 321 305 351 322 94 229 135 169 185 227 203 224 209 233 231 262 262 265 253 243 237 209 249 341 137 118 297 250 317 42 336 322 318 302 321 352 248
328 334 331 333 333 339 339 0 8 38 355 71 206 243 181 159 192 241 210 201 220 231 234 235 236 245 216 251 356 33 326 161 284 65 333 290 348 28 360 316 347 334 332 328 322
327 335 329 333 339 351 4 348 299 193 228 309 324 277 126 186 211 211 174 188 223 230 262 215 248 345 25 350 346 340 296 270 305 42 307 286 285 51 17 31 37 24 18 354 338
323 334 333 336 338 14 22 42 27 322 291 238 241 237 197 190 201 178 177 232 231 264 210 216 129 59 335 322 291 260 266 31 269 137 278 305 156 93 84 52 46 40 35 23 31
323 337 332 336 342 15 30 21 350 315 260 123 168 177 175 202 223 164 221 239 262 231 234 324 77 127 272 249 251 140 355 355 324 301 239 255 144 128 74 71 50 47 39 48 38
320 330 333 348 27 350 340 345 342 310 249 140 184 148 183 210 192 218 242 296 214 297 214 328 115 284 284 240 307 93 30 309 303 287 231 177 225 74 72 60 47 45 37 38 42
314 324 332 336 315 355 289 327 320 315 213 127 137 147 168 237 123 152 190 232 303 141 247 94 222 304 279 22 325 11 334 314 298 279 265 204 127 135 74 46 40 41 36 29 38
304 312 322 333 318 286 311 308 317 231 151 138 152 180 185 190 168 135 197 221 280 255 231 299 128 263 359 296 280 301 270 237 222 232 222 64 298 66 55 41 40 33 33 26 28
298 301 306 298 205 299 302 286 230 264 138 162 176 188 149 149 148 178 190 190 289 235 184 185 189 156 275 291 179 229 265 279 226 217 91 96 266 68 65 50 44 37 34 26 24
291 293 292 285 268 290 299 234 260 76 153 103 201 150 160 160 122 160 188 141 71 322 285 220 167 173 360 348 339 353 330 350 327 342 356 148 189 104 93 63 44 41 33 26 27
292 311 290 266 266 229 252 229 43 158 110 173 196 175 149 161 235 162 48 44 41 11 331 311 151 151 30 324 317 4 345 5 297 255 259 161 106 134 92 51 42 41 28 24 23
286 288 236 262 228 247 247 286 97 36 248 258 196 272 169 151 202 236 153 35 5 12 354 17 295 150 65 270 199 327 351 297 239 309 319 325 331 85 74 35 20 24 20 17 17
283 256 241 229 190 228 240 124 153 150 247 274 246 197 72 169 283 142 74 77 5 352 322 2 283 207 230 268 1 327 325 356 308 284 312 297 357 64 55 42 13 16 15 18 15
241 230 230 175 221 224 249 163 354 151 192 183 300 50 169 193 184 129 99 38 0 335 352 53 310 297 301 32 305 275 329 351 332 321 321 310 286 77 64 44 22 7 9 21 14
232 272 227 180 237 205 140 180 241 187 189 190 159 184 235 113 161 79 107 59 22 34 21 360 335 295 270 164 182 289 11 304 279 293 273 291 305 121 97 51 43 9 6 3 358
254 206 175 213 268 296 173 191 174 214 153 193 126 150 162 164 34 159 133 100 59 75 40 319 294 284 291 315 324 303 302 306 298 277 295 295 309 316 358 47 29 11 352 351 355
218 239 47 190 216 224 209 192 191 174 203 192 177 234 219 210 193 162 269 159 162 121 238 358 281 295 296 297 293 288 292 300 299 303 299 315 311 336 27 18 2 294 335 329 344
229 259 210 290 209 206 186 209 212 166 181 187 231 165 171 206 339 129 141 305 24 142 353 12 295 296 291 269 290 298 291 289 335 326 312 324 43 2 355 317 309 328 337 328 339
218 268 268 138 203 209 189 210 214 160 226 232 181 187 141 75 59 54 48 66 12 322 330 297 327 306 294 337 311 282 41 356 325 308 351 317 353 344 3 1 329 323 310 332 339